GW5177 Weather Reports


time (UTC)temp
C
wind
direction
speed
KPH
gust
KPH
rain 1hr
cm
rain 24hr
cm
rain mn
cm
humidity
%
barometer
mb
20260508131855 13 49 0.0 0.0 0.00 0.00 0.00 72 1018.8
20260508131350 13 49 0.0 0.0 0.00 0.00 0.00 75 1018.9
20260508130848 12 49 0.0 0.0 0.00 0.00 0.00 78 1018.9
20260508130344 11 50 0.0 1.6 0.00 0.00 0.00 79 1018.7
20260508125840 11 50 0.0 0.0 0.00 0.00 0.00 80 1019.0
20260508125337 11 23 0.0 0.0 0.00 0.00 0.00 81 1018.9
20260508124835 10 23 0.0 0.0 0.00 0.00 0.00 87 1018.7
20260508124332 9 23 0.0 0.0 0.00 0.00 0.00 91 1019.0
20260508123830 8 23 0.0 0.0 0.00 0.00 0.00 96 1018.9
20260508123328 8 23 0.0 0.0 0.00 0.00 0.00 99 1018.9
20260508122824 7 23 0.0 0.0 0.00 0.00 0.00 99 1019.0
20260508122321 6 23 0.0 0.0 0.00 0.00 0.00 99 1018.7
20260508121818 6 23 0.0 0.0 0.00 0.00 0.00 99 1018.8
20260508121317 6 23 0.0 0.0 0.00 0.00 0.00 99 1018.8
20260508120814 5 23 0.0 0.0 0.00 0.00 0.00 99 1018.7
20260508120312 4 23 0.0 0.0 0.00 0.00 0.00 99 1018.7
20260508115809 3 23 0.0 0.0 0.00 0.00 0.00 99 1018.8
20260508115307 2 23 0.0 0.0 0.00 0.00 0.00 99 1018.7
20260508114803 2 24 0.0 0.0 0.00 0.00 0.00 99 1018.7
20260508114300 2 24 0.0 0.0 0.00 0.00 0.00 99 1018.8
20260508113756 1 24 0.0 0.0 0.00 0.00 0.00 99 1018.7
20260508113255 1 24 0.0 0.0 0.00 0.00 0.00 99 1018.6
20260508112750 1 24 0.0 0.0 0.00 0.00 0.00 99 1018.5
20260508112248 1 24 0.0 0.0 0.00 0.00 0.00 99 1018.6
20260508111743 0 24 0.0 0.0 0.00 0.00 0.00 99 1018.6
20260508111242 0 24 0.0 0.0 0.00 0.00 0.00 99 1018.5
20260508110739 0 24 0.0 0.0 0.00 0.00 0.00 99 1018.3
20260508110236 0 24 0.0 0.0 0.00 0.00 0.00 99 1018.2
20260508105735 0 24 0.0 0.0 0.00 0.00 0.00 99 1018.2
20260508105232 0 24 0.0 0.0 0.00 0.00 0.00 99 1018.3
20260508104730 0 24 0.0 0.0 0.00 0.00 0.00 99 1018.2
20260508104227 0 24 0.0 0.0 0.00 0.00 0.00 99 1018.1
20260508103724 0 24 0.0 0.0 0.00 0.00 0.00 99 1018.3
20260508103220 0 24 0.0 0.0 0.00 0.00 0.00 99 1018.1
20260508102717 0 24 0.0 0.0 0.00 0.00 0.00 99 1017.9
20260508102216 0 24 0.0 0.0 0.00 0.00 0.00 99 1018.1
20260508101713 0 24 0.0 0.0 0.00 0.00 0.00 99 1018.0
20260508101211 0 24 0.0 0.0 0.00 0.00 0.00 99 1018.0
20260508100708 0 24 0.0 0.0 0.00 0.00 0.00 99 1017.8
20260508100206 0 24 0.0 0.0 0.00 0.00 0.00 99 1017.9
20260508095701 0 24 0.0 0.0 0.00 0.00 0.00 99 1017.9
20260508095159 0 24 0.0 0.0 0.00 0.00 0.00 99 1017.7
20260508094656 0 24 0.0 0.0 0.00 0.00 0.00 99 1017.9
20260508094152 0 24 0.0 0.0 0.00 0.00 0.00 99 1017.6
20260508093650 0 24 0.0 0.0 0.00 0.00 0.00 99 1017.8
20260508093147 0 24 0.0 0.0 0.00 0.00 0.00 99 1017.9
20260508092644 0 24 0.0 0.0 0.00 0.00 0.00 99 1017.8
20260508092143 0 24 0.0 0.0 0.00 0.00 0.00 99 1017.8
20260508091640 0 24 0.0 0.0 0.00 0.00 0.00 99 1017.7
20260508091137 0 24 0.0 0.0 0.00 0.00 0.00 99 1017.7
20260508090635 0 24 0.0 0.0 0.00 0.00 0.00 99 1017.8
20260508090132 0 24 0.0 0.0 0.00 0.00 0.00 99 1017.7
20260508085627 0 24 0.0 0.0 0.00 0.00 0.00 99 1017.8
20260508085125 0 24 0.0 0.0 0.00 0.00 0.00 99 1017.8
20260508084621 0 24 0.0 0.0 0.00 0.00 0.00 99 1017.7
20260508084119 0 24 0.0 0.0 0.00 0.00 0.00 99 1017.7
20260508083616 0 24 0.0 0.0 0.00 0.00 0.00 99 1017.7
20260508083113 0 24 0.0 0.0 0.00 0.00 0.00 99 1017.8
20260508082608 0 24 0.0 0.0 0.00 0.00 0.00 99 1017.7
20260508082106 0 24 0.0 0.0 0.00 0.00 0.00 99 1017.7
20260508081603 0 24 0.0 0.0 0.00 0.00 0.00 99 1017.7
20260508081059 0 24 0.0 0.0 0.00 0.00 0.00 99 1017.8
20260508080557 0 24 0.0 0.0 0.00 0.00 0.00 99 1017.9
20260508080055 0 24 0.0 0.0 0.00 0.00 0.00 99 1017.9
20260508075546 0 24 0.0 0.0 0.00 0.00 0.00 99 1017.9
20260508075043 1 24 0.0 0.0 0.00 0.00 0.00 99 1017.7
20260508074541 1 24 0.0 0.0 0.00 0.00 0.00 99 1017.7
20260508074038 1 24 0.0 0.0 0.00 0.00 0.00 99 1017.9
20260508073535 1 24 0.0 0.0 0.00 0.00 0.00 99 1017.8
20260508073032 1 24 0.0 0.0 0.00 0.00 0.00 99 1017.9
20260508072528 1 24 0.0 0.0 0.00 0.00 0.00 99 1017.8
20260508072026 1 24 0.0 0.0 0.00 0.00 0.00 99 1017.9
20260508071523 1 24 0.0 0.0 0.00 0.00 0.00 99 1017.8
20260508071021 1 24 0.0 0.0 0.00 0.00 0.00 99 1017.8
20260508070518 1 24 0.0 0.0 0.00 0.00 0.00 99 1017.8
20260508070016 1 24 0.0 0.0 0.00 0.00 0.00 99 1018.0
20260508065514 1 24 0.0 0.0 0.00 0.00 0.00 99 1017.9
20260508065012 1 24 0.0 0.0 0.00 0.00 0.00 99 1018.0
20260508064509 1 24 0.0 0.0 0.00 0.00 0.00 99 1017.9
20260508064007 1 24 0.0 0.0 0.00 0.00 0.00 99 1018.1
20260508063504 1 24 0.0 0.0 0.00 0.00 0.00 99 1017.9
20260508063002 1 24 0.0 0.0 0.00 0.00 0.00 99 1018.1
20260508062459 1 24 0.0 0.0 0.00 0.00 0.00 99 1018.1
20260508061955 1 24 0.0 0.0 0.00 0.00 0.00 99 1018.0
20260508061454 1 24 0.0 0.0 0.00 0.00 0.00 99 1018.2
20260508060950 1 24 0.0 0.0 0.00 0.00 0.00 99 1018.2
20260508060447 1 24 0.0 0.0 0.00 0.00 0.00 99 1018.3
20260508055943 1 24 0.0 0.0 0.00 0.00 0.00 99 1018.2
20260508055440 1 24 0.0 0.0 0.00 0.00 0.00 99 1018.2
20260508054937 1 24 0.0 0.0 0.00 0.00 0.00 99 1018.1
20260508054434 1 24 0.0 0.0 0.00 0.00 0.00 99 1018.3
20260508053930 2 24 0.0 0.0 0.00 0.00 0.00 99 1018.0
20260508053427 2 24 0.0 0.0 0.00 0.00 0.00 99 1018.1
20260508052925 2 24 0.0 0.0 0.00 0.00 0.00 99 1017.9
20260508052422 2 24 0.0 0.0 0.00 0.00 0.00 99 1018.0
20260508051919 2 24 0.0 0.0 0.00 0.00 0.00 99 1018.3
20260508051414 2 24 0.0 0.0 0.00 0.00 0.00 99 1018.3
20260508050911 2 24 0.0 0.0 0.00 0.00 0.00 99 1018.1
20260508050407 2 24 0.0 0.0 0.00 0.00 0.00 99 1018.2
20260508045903 2 24 0.0 0.0 0.00 0.00 0.00 99 1018.2
20260508045401 2 24 0.0 0.0 0.00 0.00 0.00 99 1018.3
20260508044858 2 24 0.0 0.0 0.00 0.00 0.00 99 1018.5
20260508044355 2 24 0.0 0.0 0.00 0.00 0.00 98 1018.3
20260508043851 2 24 0.0 0.0 0.00 0.00 0.00 98 1018.3
20260508043349 2 24 0.0 0.0 0.00 0.00 0.00 98 1018.3
20260508042845 2 24 0.0 0.0 0.00 0.00 0.00 98 1018.5
20260508042343 2 24 0.0 0.0 0.00 0.00 0.00 98 1018.1
20260508041839 2 24 0.0 0.0 0.00 0.00 0.00 98 1018.2
20260508041336 2 24 0.0 0.0 0.00 0.00 0.00 98 1018.3
20260508040832 2 24 0.0 0.0 0.00 0.00 0.00 98 1018.2
20260508040329 3 24 0.0 0.0 0.00 0.00 0.00 98 1018.2
20260508035826 3 24 0.0 0.0 0.00 0.00 0.00 97 1018.3
20260508035324 3 24 0.0 0.0 0.00 0.00 0.00 97 1018.3
20260508034820 3 24 0.0 0.0 0.00 0.00 0.00 97 1018.2
20260508034318 3 24 0.0 0.0 0.00 0.00 0.00 97 1018.1
20260508033814 3 24 0.0 0.0 0.00 0.00 0.00 97 1018.0
20260508033313 3 24 0.0 0.0 0.00 0.00 0.00 96 1018.3
20260508032810 3 24 0.0 0.0 0.00 0.00 0.00 96 1018.0
20260508032307 3 24 0.0 0.0 0.00 0.00 0.00 96 1018.1
20260508031803 3 24 0.0 0.0 0.00 0.00 0.00 96 1018.2
20260508031300 3 24 0.0 0.0 0.00 0.00 0.00 96 1018.1
20260508030756 3 24 0.0 0.0 0.00 0.00 0.00 95 1018.1
20260508030254 3 24 0.0 0.0 0.00 0.00 0.00 95 1017.9
20260508025750 3 24 0.0 0.0 0.00 0.00 0.00 95 1017.9
20260508025248 4 24 0.0 0.0 0.00 0.00 0.00 94 1017.8
20260508024744 4 24 0.0 0.0 0.00 0.00 0.00 94 1017.6
20260508024240 4 24 0.0 0.0 0.00 0.00 0.00 93 1017.7
20260508023738 4 24 0.0 0.0 0.00 0.00 0.00 93 1017.5
20260508023235 4 24 0.0 0.0 0.00 0.00 0.00 92 1017.5
20260508022731 5 24 0.0 0.0 0.00 0.00 0.00 92 1017.4
20260508022227 5 24 0.0 0.0 0.00 0.00 0.00 91 1017.5
20260508021724 5 23 0.0 0.0 0.00 0.00 0.00 91 1017.3
20260508021219 5 23 0.0 0.0 0.00 0.00 0.00 91 1017.3
20260508020717 5 23 0.0 0.0 0.00 0.00 0.00 90 1017.4
20260508020214 5 23 0.0 0.0 0.00 0.00 0.00 89 1017.2
20260508015711 5 23 0.0 0.0 0.00 0.00 0.00 89 1017.1
20260508015208 6 23 0.0 0.0 0.00 0.00 0.00 88 1017.1
20260508014705 6 23 0.0 0.0 0.00 0.00 0.00 88 1017.0
20260508014201 6 23 0.0 0.0 0.00 0.00 0.00 87 1017.0
20260508013657 6 23 0.0 0.0 0.00 0.00 0.00 86 1016.8
20260508013154 6 23 0.0 0.0 0.00 0.00 0.00 85 1016.7
20260508012652 7 23 0.0 0.0 0.00 0.00 0.00 84 1016.7
20260508012148 7 23 0.0 0.0 0.00 0.00 0.00 83 1016.6
20260508011647 7 23 0.0 0.0 0.00 0.00 0.00 81 1016.5
20260508011144 7 23 0.0 0.0 0.00 0.00 0.00 77 1016.5
20260508010641 8 23 0.0 0.0 0.00 0.00 0.00 76 1016.6
20260508010139 8 23 0.0 0.0 0.00 0.00 0.00 75 1016.3
20260508005636 8 23 0.0 0.0 0.00 0.00 0.00 74 1016.5
20260508005132 9 23 0.0 0.0 0.00 0.00 0.00 73 1016.3
20260508004627 9 23 0.0 0.0 0.00 0.00 0.00 72 1016.3
20260508004125 10 23 0.0 0.0 0.00 0.00 0.00 71 1016.3
20260508003621 10 23 0.0 0.0 0.00 0.00 0.00 69 1016.1
20260508003119 11 23 0.0 0.0 0.00 0.00 0.00 69 1016.0
20260508002615 11 23 0.0 0.0 0.00 0.00 0.00 68 1016.0
20260508002113 12 23 0.0 0.0 0.00 0.00 0.00 63 1016.0
20260508001608 12 23 0.0 0.0 0.00 0.00 0.00 60 1016.0
20260508001104 13 14 0.0 0.0 0.00 0.00 0.00 53 1015.7
20260508000600 13 14 0.0 0.0 0.00 0.00 0.00 53 1015.8
20260508000057 13 14 0.0 0.0 0.00 0.00 0.00 49 1015.9
20260507235554 14 14 0.0 1.6 0.00 0.00 0.00 44 1015.7
20260507235052 15 314 0.0 1.6 0.00 0.00 0.00 43 1015.5
20260507234548 15 256 1.6 3.2 0.00 0.00 0.00 41 1015.4
20260507234044 15 247 0.0 0.0 0.00 0.00 0.00 40 1015.4
20260507233541 15 293 0.0 3.2 0.00 0.00 0.00 38 1015.4
20260507233040 16 218 0.0 1.6 0.00 0.00 0.00 36 1015.3
20260507232536 17 221 0.0 1.6 0.00 0.00 0.00 37 1015.4
20260507232033 16 221 0.0 0.0 0.00 0.00 0.00 38 1015.2
20260507231529 16 221 1.6 1.6 0.00 0.00 0.00 37 1015.2
20260507231027 16 221 0.0 1.6 0.00 0.00 0.00 37 1015.1
20260507230524 16 144 0.0 1.6 0.00 0.00 0.00 38 1015.1
20260507230020 16 244 0.0 3.2 0.00 0.00 0.00 35 1015.4
20260507225515 16 228 3.2 6.4 0.00 0.00 0.00 35 1015.2
20260507225012 16 242 3.2 3.2 0.00 0.00 0.00 40 1015.2
20260507224507 16 232 3.2 4.8 0.00 0.00 0.00 37 1015.2
20260507224004 16 234 1.6 6.4 0.00 0.00 0.00 39 1015.1
20260507223500 16 227 0.0 3.2 0.00 0.00 0.00 41 1014.9
20260507222958 16 203 0.0 1.6 0.00 0.00 0.00 46 1014.9
20260507222454 17 223 0.0 4.8 0.00 0.00 0.00 41 1015.0
20260507221951 17 237 0.0 4.8 0.00 0.00 0.00 37 1015.0
20260507221448 17 266 3.2 4.8 0.00 0.00 0.00 40 1014.8
20260507220944 19 95 0.0 3.2 0.00 0.00 0.00 41 1014.7
20260507220442 17 292 1.6 4.8 0.00 0.00 0.00 37 1014.9
20260507215939 16 48 1.6 4.8 0.00 0.00 0.00 44 1014.9
20260507215435 17 242 0.0 1.6 0.00 0.00 0.00 43 1014.9
20260507214933 17 204 3.2 9.7 0.00 0.00 0.00 39 1014.6
20260507214430 17 253 3.2 4.8 0.00 0.00 0.00 40 1014.7
20260507213925 17 170 1.6 4.8 0.00 0.00 0.00 40 1014.8
20260507213422 20 221 3.2 6.4 0.00 0.00 0.00 40 1014.4
20260507212919 20 198 4.8 4.8 0.00 0.00 0.00 37 1014.5
20260507212415 18 216 6.4 11.3 0.00 0.00 0.00 40 1014.5
20260507211912 18 333 4.8 6.4 0.00 0.00 0.00 36 1014.3
20260507211408 17 174 3.2 4.8 0.00 0.00 0.00 41 1014.3
20260507210905 18 182 1.6 3.2 0.00 0.00 0.00 42 1014.2
20260507210402 18 223 0.0 1.6 0.00 0.00 0.00 40 1014.4
20260507205858 16 289 3.2 4.8 0.00 0.00 0.00 44 1014.2
20260507205355 17 182 0.0 0.0 0.00 0.00 0.00 48 1014.2
20260507204852 16 236 0.0 3.2 0.00 0.00 0.00 44 1014.3
20260507204349 17 231 3.2 4.8 0.00 0.00 0.00 44 1014.2
20260507203846 18 115 0.0 3.2 0.00 0.00 0.00 45 1014.2
20260507203339 17 290 0.0 6.4 0.00 0.00 0.00 45 1014.1
20260507202835 17 131 1.6 4.8 0.00 0.00 0.00 45 1014.2
20260507202331 17 280 1.6 6.4 0.00 0.00 0.00 40 1014.2
20260507201827 18 288 0.0 9.7 0.00 0.00 0.00 46 1014.3
20260507201323 18 272 1.6 6.4 0.00 0.00 0.00 42 1014.4
20260507200819 18 248 3.2 4.8 0.00 0.00 0.00 43 1014.4
20260507200315 20 275 6.4 9.7 0.00 0.00 0.00 40 1014.3
20260507195811 20 245 1.6 9.7 0.00 0.00 0.00 41 1014.3
20260507195309 19 105 3.2 6.4 0.00 0.00 0.00 41 1014.3
20260507194806 20 199 1.6 3.2 0.00 0.00 0.00 41 1014.2
20260507194302 20 59 3.2 4.8 0.00 0.00 0.00 40 1014.5
20260507193759 19 241 6.4 6.4 0.00 0.00 0.00 42 1014.5
20260507193256 18 199 3.2 6.4 0.00 0.00 0.00 40 1014.5
20260507192752 20 257 1.6 4.8 0.00 0.00 0.00 43 1014.5
20260507192249 19 158 0.0 3.2 0.00 0.00 0.00 45 1014.6
20260507191745 19 130 6.4 9.7 0.00 0.00 0.00 42 1014.5
20260507191242 18 139 4.8 6.4 0.00 0.00 0.00 41 1014.8
20260507190738 17 117 1.6 9.7 0.00 0.00 0.00 47 1014.7
20260507190237 18 211 0.0 3.2 0.00 0.00 0.00 46 1014.9
20260507185735 17 217 0.0 1.6 0.00 0.00 0.00 44 1014.7
20260507185231 17 196 4.8 6.4 0.00 0.00 0.00 44 1014.8
20260507184729 19 146 1.6 4.8 0.00 0.00 0.00 44 1014.9
20260507184227 17 237 0.0 4.8 0.00 0.00 0.00 48 1014.8
20260507183723 18 133 0.0 4.8 0.00 0.00 0.00 46 1015.1
20260507183220 18 34 1.6 6.4 0.00 0.00 0.00 48 1015.0
20260507182718 18 218 1.6 3.2 0.00 0.00 0.00 52 1015.0
20260507182213 18 256 3.2 4.8 0.00 0.00 0.00 46 1015.0
20260507181710 18 203 1.6 3.2 0.00 0.00 0.00 46 1014.8
20260507181206 19 278 1.6 3.2 0.00 0.00 0.00 51 1014.9
20260507180703 17 272 3.2 9.7 0.00 0.00 0.00 48 1015.0
20260507180200 16 257 3.2 3.2 0.00 0.00 0.00 49 1015.2
20260507175655 17 259 3.2 4.8 0.00 0.00 0.00 50 1014.9
20260507175152 17 220 3.2 3.2 0.00 0.00 0.00 53 1015.2
20260507174649 18 266 3.2 6.4 0.00 0.00 0.00 52 1015.2
20260507174147 18 174 1.6 1.6 0.00 0.00 0.00 53 1015.1
20260507173644 17 271 0.0 1.6 0.00 0.00 0.00 55 1015.1
20260507173141 17 282 0.0 1.6 0.00 0.00 0.00 54 1015.1
20260507172637 17 64 0.0 3.2 0.00 0.00 0.00 52 1015.4
20260507172135 16 156 0.0 4.8 0.00 0.00 0.00 51 1015.3
20260507171629 18 162 1.6 4.8 0.00 0.00 0.00 48 1015.4
20260507171127 17 238 1.6 4.8 0.00 0.00 0.00 53 1015.6
20260507170623 17 210 0.0 4.8 0.00 0.00 0.00 58 1015.6
20260507170120 17 203 1.6 3.2 0.00 0.00 0.00 56 1015.4
20260507165616 18 232 1.6 3.2 0.00 0.00 0.00 53 1015.5
20260507165113 17 242 0.0 1.6 0.00 0.00 0.00 55 1015.6
20260507164609 17 47 3.2 3.2 0.00 0.00 0.00 51 1015.8
20260507164106 18 47 0.0 1.6 0.00 0.00 0.00 57 1015.8
20260507163604 17 342 0.0 0.0 0.00 0.00 0.00 56 1015.8
20260507163102 18 50 3.2 4.8 0.00 0.00 0.00 49 1015.7
20260507162601 18 50 0.0 4.8 0.00 0.00 0.00 47 1015.8
20260507162059 17 50 0.0 1.6 0.00 0.00 0.00 55 1015.8
20260507161555 16 50 1.6 3.2 0.00 0.00 0.00 53 1016.0
20260507161051 18 48 1.6 3.2 0.00 0.00 0.00 49 1016.0
20260507160548 16 48 0.0 3.2 0.00 0.00 0.00 54 1016.0
20260507160044 16 48 0.0 3.2 0.00 0.00 0.00 52 1016.1
20260507155539 16 276 0.0 3.2 0.00 0.00 0.00 55 1016.1
20260507155037 16 245 0.0 1.6 0.00 0.00 0.00 59 1016.3
20260507154534 15 271 0.0 4.8 0.00 0.00 0.00 56 1016.1
20260507154031 15 229 0.0 0.0 0.00 0.00 0.00 56 1016.0
20260507153528 15 229 1.6 4.8 0.00 0.00 0.00 53 1016.1
20260507153024 16 246 9.7 12.9 0.00 0.00 0.00 51 1016.2
20260507152519 15 250 1.6 3.2 0.00 0.00 0.00 62 1016.1
20260507152016 15 280 0.0 1.6 0.00 0.00 0.00 56 1016.0
20260507151513 15 280 1.6 3.2 0.00 0.00 0.00 55 1016.1
20260507151010 17 280 1.6 1.6 0.00 0.00 0.00 54 1016.0
20260507150506 16 280 1.6 3.2 0.00 0.00 0.00 57 1016.0
20260507150003 16 280 0.0 1.6 0.00 0.00 0.00 61 1016.1
20260507145458 15 280 0.0 1.6 0.00 0.00 0.00 62 1016.2
20260507144955 15 243 1.6 4.8 0.00 0.00 0.00 58 1016.2
20260507144452 16 20 0.0 3.2 0.00 0.00 0.00 59 1016.2
20260507143949 15 275 0.0 4.8 0.00 0.00 0.00 60 1016.3
20260507143447 13 19 0.0 3.2 0.00 0.00 0.00 64 1016.1
20260507142943 14 225 1.6 1.6 0.00 0.00 0.00 59 1016.1
20260507142439 14 273 3.2 4.8 0.00 0.00 0.00 69 1016.2
20260507141937 15 143 0.0 0.0 0.00 0.00 0.00 61 1016.2
20260507141432 13 167 1.6 4.8 0.00 0.00 0.00 66 1016.3
20260507140929 14 116 1.6 1.6 0.00 0.00 0.00 64 1016.3
20260507140426 13 116 0.0 1.6 0.00 0.00 0.00 67 1016.4
20260507135924 14 116 0.0 0.0 0.00 0.00 0.00 63 1016.6
20260507135420 14 116 0.0 1.6 0.00 0.00 0.00 72 1016.5
20260507134918 13 116 0.0 0.0 0.00 0.00 0.00 73 1016.5
20260507134414 13 116 0.0 0.0 0.00 0.00 0.00 71 1016.7
20260507133910 12 115 0.0 1.6 0.00 0.00 0.00 72 1016.9
20260507133406 13 115 0.0 0.0 0.00 0.00 0.00 73 1016.8
20260507132905 13 116 0.0 0.0 0.00 0.00 0.00 75 1016.9
20260507132400 12 116 0.0 0.0 0.00 0.00 0.00 78 1016.9